Regional Weather Roundup
Issued by NWS

Home | Current Version | Previous Version | Text Only | Print | Product List | Glossary Off
Versions: 1 2 3 4 5 6 7 8 9 10 11 12 13 14 15 16 17 18 19 20 21 22 23 24 25 26 27 28 29 30 31 32 33 34 35 36 37 38 39 40 41 42 43 44 45 46 47 48 49 50

000
ASUS43 KBIS 281259
RWRND

NORTH DAKOTA REGIONAL WEATHER ROUNDUP
NATIONAL WEATHER SERVICE BISMARCK ND
800 AM CDT THU AUG 28 2014

NOTE: "FAIR" INDICATES FEW OR NO CLOUDS BELOW 12,000 FEET WITH NO
SIGNIFICANT WEATHER AND/OR OBSTRUCTIONS TO VISIBILITY.


NDZ001>003-009>011-017-281400-
NORTHWEST NORTH DAKOTA

CITY           SKY/WX    TMP DP  RH WIND       PRES   REMARKS
WILLISTON      CLEAR     57  56  96 SW3       29.90S
MINOT          CLEAR     62  60  93 S9        29.90F FOG
$$

NDZ018>021-031>035-040>046-281400-
SOUTHWEST NORTH DAKOTA

CITY           SKY/WX    TMP DP  RH WIND       PRES   REMARKS
BISMARCK       CLOUDY    62  60  93 CALM      29.96R
GARRISON         N/A     62  62 100 S5        29.94S
HETTINGER ARPT FOG       56  55  97 S3        29.98S VSB 1/4
$$

NDZ004>008-012>016-024-026-027-054-281400-
NORTHEAST NORTH DAKOTA

CITY           SKY/WX    TMP DP  RH WIND       PRES   REMARKS
GRAND FORKS    CLOUDY    63  60  90 S12       29.96F
DEVILS LAKE    MOSUNNY   63  57  82 S6        29.94S
$$

NDZ022-023-025-028>030-036>039-047>053-281400-
SOUTHEAST NORTH DAKOTA

CITY           SKY/WX    TMP DP  RH WIND       PRES   REMARKS
FARGO          CLOUDY    66  59  78 SE13      29.99S
$$




USA.gov is the U.S. government's official web portal to all federal, state and local government web resources and services.